�N����,����,�~����,�C��,���x,�C��,����,���ϕ���,�ő�u�ԕ���,�ő厞����,���˗�,�I�_���x,�n�����x,�ő啗���N��,DTYPE
"20/01/26","00:10",0.0,5.8,76.9,1020.8,304.9,1.2,1.7,315.1,0.00,2.1,8.4,"00:06:06",1
"20/01/26","00:20",0.0,5.8,77.5,1020.6,315.1,1.5,1.9,318.2,0.00,2.2,8.2,"00:14:16",1
"20/01/26","00:30",0.0,5.8,78.2,1021.1,308.4,1.8,2.8,323.6,0.00,2.3,8.2,"00:28:56",1
"20/01/26","00:40",0.0,5.7,78.6,1020.8,288.7,1.2,1.9,312.4,0.00,2.3,8.2,"00:31:48",1
"20/01/26","00:50",0.0,5.8,79.1,1020.6,318.1,0.8,2.0,323.1,0.00,2.5,8.2,"00:40:02",1
"20/01/26","01:00",0.0,5.8,79.4,1020.4,314.2,1.5,2.4,322.1,0.00,2.6,8.3,"00:50:08",1
"20/01/26","01:10",0.0,5.7,80.0,1020.1,323.1,2.2,3.2,334.4,0.00,2.6,8.3,"01:06:58",1
"20/01/26","01:20",0.0,5.7,80.6,1020.4,323.9,2.2,3.1,316.7,0.00,2.7,8.1,"01:10:48",1
"20/01/26","01:30",0.0,5.8,80.7,1020.4,318.7,2.6,4.5,325.1,0.00,2.8,8.1,"01:29:04",1
"20/01/26","01:40",0.0,5.9,80.4,1020.4,313.1,2.2,3.3,337.2,0.00,2.8,8.1,"01:30:08",1
"20/01/26","01:50",0.0,5.9,80.2,1019.9,295.5,1.5,2.6,327.7,0.00,2.8,8.0,"01:41:28",1
"20/01/26","02:00",0.0,6.0,79.9,1020.4,294.5,1.7,3.1,341.2,0.00,2.8,8.2,"01:51:28",1
"20/01/26","02:10",0.0,5.9,79.7,1020.4,282.5,1.7,2.7,303.0,0.00,2.7,8.1,"02:08:04",1
"20/01/26","02:20",0.0,5.9,79.6,1019.9,301.5,1.7,2.4,323.2,0.00,2.7,7.9,"02:10:50",1
"20/01/26","02:30",0.0,6.0,79.4,1020.6,309.5,2.3,4.4,321.5,0.00,2.8,8.1,"02:21:36",1
"20/01/26","02:40",0.0,6.0,79.3,1020.6,326.3,1.7,3.1,326.8,0.00,2.7,8.3,"02:30:16",1
"20/01/26","02:50",0.0,5.9,79.4,1020.8,318.9,1.8,2.5,324.9,0.00,2.7,8.0,"02:42:48",1
"20/01/26","03:00",0.0,5.9,79.4,1020.4,321.4,2.3,3.3,322.1,0.00,2.7,8.0,"02:53:54",1
"20/01/26","03:10",0.0,5.9,79.1,1020.6,320.6,2.2,2.8,318.9,0.00,2.6,8.0,"03:05:24",1
"20/01/26","03:20",0.0,6.0,78.8,1020.1,310.2,2.3,4.0,322.1,0.00,2.6,7.9,"03:10:40",1
"20/01/26","03:30",0.0,6.0,78.6,1020.1,296.2,1.6,2.1,324.5,0.00,2.6,7.9,"03:29:28",1
"20/01/26","03:40",0.0,5.9,78.8,1019.9,316.5,1.6,3.3,314.4,0.00,2.5,8.2,"03:30:32",1
"20/01/26","03:50",0.0,5.8,79.2,1019.9,307.4,1.7,3.1,324.0,0.00,2.5,7.9,"03:42:02",1
"20/01/26","04:00",0.0,5.8,79.7,1019.7,300.3,1.7,2.6,327.4,0.00,2.6,8.0,"03:59:52",1
"20/01/26","04:10",0.0,5.7,79.9,1019.4,311.4,1.5,2.2,314.8,0.00,2.5,8.0,"04:01:04",1
"20/01/26","04:20",0.0,5.7,80.4,1019.4,318.5,1.5,2.2,331.9,0.00,2.6,7.8,"04:13:16",1
"20/01/26","04:30",0.0,5.6,80.8,1019.7,308.3,2.0,3.1,311.8,0.00,2.6,7.9,"04:25:12",1
"20/01/26","04:40",0.0,5.8,80.7,1019.7,304.6,2.1,2.9,315.2,0.00,2.8,8.0,"04:38:36",1
"20/01/26","04:50",0.0,5.8,80.5,1019.2,315.6,2.6,4.2,331.1,0.00,2.7,8.1,"04:40:56",1
"20/01/26","05:00",0.0,5.7,80.4,1019.4,306.5,1.6,2.7,314.4,0.00,2.6,8.1,"04:52:18",1
"20/01/26","05:10",0.0,5.7,80.4,1019.4,310.2,1.3,2.0,321.2,0.00,2.6,7.9,"05:05:52",1
"20/01/26","05:20",0.0,5.5,80.9,1019.4,320.9,1.5,2.1,323.9,0.00,2.5,7.9,"05:10:20",1
"20/01/26","05:30",0.0,5.4,81.3,1019.2,310.6,1.3,1.8,332.2,0.00,2.5,7.9,"05:21:36",1
"20/01/26","05:40",0.0,5.3,81.7,1019.0,302.4,1.1,1.7,332.6,0.00,2.5,8.0,"05:38:30",1
"20/01/26","05:50",0.0,5.3,82.1,1019.0,306.0,1.5,1.8,319.2,0.00,2.5,7.9,"05:42:38",1
"20/01/26","06:00",0.0,5.3,82.5,1018.7,295.0,1.5,1.7,310.0,0.00,2.6,7.8,"05:57:38",1
"20/01/26","06:10",0.0,5.3,82.8,1019.0,305.3,2.0,2.7,317.9,0.00,2.7,8.0,"06:08:54",1
"20/01/26","06:20",0.0,5.4,82.8,1019.0,320.1,2.7,3.6,333.1,0.00,2.8,7.9,"06:13:22",1
"20/01/26","06:30",0.0,5.5,82.7,1019.0,322.3,2.7,3.6,301.2,0.00,2.8,7.7,"06:23:48",1
"20/01/26","06:40",0.0,5.5,82.5,1019.2,325.1,2.5,3.7,319.6,0.00,2.8,7.8,"06:35:38",1
"20/01/26","06:50",0.0,5.5,82.4,1019.0,330.9,2.0,3.1,337.7,0.00,2.8,7.9,"06:40:24",1
"20/01/26","07:00",0.0,5.5,82.3,1019.2,329.0,1.7,2.6,304.5,0.00,2.8,7.8,"06:59:28",1
"20/01/26","07:10",0.0,5.4,82.3,1018.7,312.8,2.0,2.6,328.7,0.00,2.7,7.7,"07:00:08",1
"20/01/26","07:20",0.0,5.5,82.2,1018.5,311.1,2.3,3.7,329.9,0.00,2.8,7.7,"07:13:30",1
"20/01/26","07:30",0.0,5.4,82.3,1018.2,315.9,2.2,3.7,326.9,0.00,2.7,7.6,"07:29:08",1
"20/01/26","07:40",0.0,5.4,82.3,1018.5,326.6,2.5,3.7,323.1,0.00,2.7,7.8,"07:31:30",1
"20/01/26","07:50",0.0,5.4,82.4,1018.5,331.0,1.8,2.7,323.1,0.00,2.7,8.0,"07:45:42",1
"20/01/26","08:00",0.0,5.3,82.4,1019.0,329.6,1.7,3.1,330.0,0.00,2.6,7.7,"07:53:04",1
"20/01/26","08:10",0.0,5.5,82.3,1019.0,326.3,2.2,3.5,325.4,0.00,2.8,7.7,"08:05:26",1
"20/01/26","08:20",0.0,5.6,82.1,1018.5,325.4,2.0,3.3,343.5,0.00,2.8,7.7,"08:13:40",1
"20/01/26","08:30",0.0,5.7,81.9,1019.2,325.3,2.1,3.5,333.8,0.00,2.9,7.7,"08:26:04",1
"20/01/26","08:40",0.0,5.8,81.7,1019.2,323.2,2.1,3.4,313.3,0.01,3.0,7.5,"08:38:58",1
"20/01/26","08:50",0.0,6.0,81.5,1019.4,322.9,2.1,3.2,325.4,0.02,3.1,7.7,"08:40:48",1
"20/01/26","09:00",0.0,6.1,81.0,1019.7,317.9,2.5,3.9,342.1,0.02,3.1,7.8,"08:57:04",1
"20/01/26","09:10",0.0,6.2,80.2,1019.7,322.7,2.6,3.9,330.3,0.03,3.1,8.0,"09:06:32",1
"20/01/26","09:20",0.0,6.5,79.1,1019.9,320.8,2.8,4.0,318.7,0.04,3.2,7.9,"09:11:28",1
"20/01/26","09:30",0.0,6.7,78.3,1020.6,324.3,2.7,3.9,325.9,0.05,3.2,7.7,"09:26:48",1
"20/01/26","09:40",0.0,6.9,77.4,1020.6,320.5,2.5,3.9,319.4,0.07,3.3,7.8,"09:39:44",1
"20/01/26","09:50",0.0,7.1,76.5,1020.4,320.5,3.0,4.5,316.6,0.07,3.3,7.8,"09:47:12",1
"20/01/26","10:00",0.0,7.3,75.7,1020.1,325.1,2.7,4.1,340.3,0.08,3.3,8.0,"09:52:56",1
"20/01/26","10:10",0.0,7.5,74.9,1019.9,328.7,2.1,3.4,330.4,0.08,3.4,8.1,"10:04:00",1
"20/01/26","10:20",0.0,7.7,74.0,1020.1,323.5,1.7,2.5,340.0,0.09,3.4,8.2,"10:11:20",1
"20/01/26","10:30",0.0,7.9,72.8,1020.4,331.9,2.1,3.3,333.5,0.10,3.4,8.3,"10:24:16",1
"20/01/26","10:40",0.0,8.2,72.1,1020.4,336.9,1.2,2.2,335.0,0.11,3.5,8.1,"10:39:36",1
"20/01/26","10:50",0.0,8.4,71.7,1020.4,310.6,2.0,3.9,299.5,0.13,3.6,8.2,"10:46:32",1
"20/01/26","11:00",0.0,8.5,71.4,1020.1,305.3,2.6,4.0,346.8,0.15,3.7,8.2,"10:50:16",1
"20/01/26","11:10",0.0,8.8,71.0,1020.4,293.2,2.1,3.6,317.2,0.16,3.9,8.2,"11:08:16",1
"20/01/26","11:20",0.0,9.0,70.2,1019.9,320.1,2.6,3.7,330.8,0.17,3.9,8.5,"11:15:12",1
"20/01/26","11:30",0.0,9.5,69.0,1020.1,297.7,1.8,3.3,333.4,0.20,4.1,8.7,"11:20:02",1
"20/01/26","11:40",0.0,10.2,67.9,1020.1,274.9,1.2,4.3,321.7,0.37,4.6,8.7,"11:30:08",1
"20/01/26","11:50",0.0,11.1,66.2,1019.9,250.9,1.0,1.9,226.1,0.36,5.1,9.0,"11:42:24",1
"20/01/26","12:00",0.0,10.8,65.6,1020.6,246.7,1.5,2.9,235.3,0.26,4.7,9.0,"11:54:56",1
"20/01/26","12:10",0.0,11.1,64.5,1019.9,229.0,0.7,1.8,310.9,0.29,4.7,9.2,"12:01:36",1
"20/01/26","12:20",0.0,11.0,63.3,1019.9,236.3,1.2,2.8,233.4,0.28,4.3,9.4,"12:17:36",1
"20/01/26","12:30",0.0,11.1,63.3,1020.4,220.4,0.6,2.1,149.1,0.24,4.4,9.6,"12:29:44",1
"20/01/26","12:40",0.0,11.2,63.1,1019.4,176.9,1.0,2.1,163.5,0.27,4.5,9.7,"12:34:32",1
"20/01/26","12:50",0.0,12.1,61.8,1018.7,214.0,1.2,2.4,207.2,0.43,5.0,9.9,"12:44:40",1
"20/01/26","13:00",0.0,11.8,61.0,1018.7,133.4,1.3,2.2,119.6,0.41,4.6,10.1,"12:53:52",1
"20/01/26","13:10",0.0,12.3,60.6,1018.0,192.2,1.6,3.3,215.0,0.46,4.9,10.2,"13:02:32",1
"20/01/26","13:20",0.0,12.4,59.8,1018.0,190.9,1.5,3.1,142.1,0.37,4.9,10.5,"13:16:00",1
"20/01/26","13:30",0.0,12.8,60.6,1018.2,220.0,2.0,3.6,228.4,0.43,5.4,10.7,"13:21:36",1
"20/01/26","13:40",0.0,12.8,58.7,1018.0,157.9,1.3,2.7,115.4,0.42,5.0,11.0,"13:31:52",1
"20/01/26","13:50",0.0,13.0,59.1,1018.0,214.7,1.5,3.1,174.6,0.40,5.2,11.0,"13:41:52",1
"20/01/26","14:00",0.0,13.3,57.7,1018.0,172.1,1.5,3.5,117.6,0.39,5.2,11.2,"13:52:48",1
"20/01/26","14:10",0.0,13.5,56.8,1017.8,165.1,1.2,2.8,162.4,0.37,5.1,11.5,"14:03:52",1
"20/01/26","14:20",0.0,13.1,56.8,1017.8,134.2,1.0,2.5,28.8,0.24,4.8,11.6,"14:19:52",1
"20/01/26","14:30",0.0,12.9,56.8,1017.8,126.1,1.2,2.4,125.6,0.23,4.6,11.7,"14:22:16",1
"20/01/26","14:40",0.0,12.7,57.5,1017.8,92.9,1.2,2.6,85.8,0.15,4.6,11.8,"14:37:20",1
"20/01/26","14:50",0.0,12.7,57.4,1017.8,125.2,1.3,2.8,108.3,0.21,4.5,11.8,"14:42:08",1
"20/01/26","15:00",0.0,12.7,56.9,1017.8,102.7,1.0,2.2,102.0,0.15,4.4,11.7,"14:58:00",1
"20/01/26","15:10",0.0,12.7,56.3,1017.5,64.7,1.0,2.1,108.9,0.17,4.3,11.7,"15:00:32",1
"20/01/26","15:20",0.0,12.8,55.2,1017.5,61.7,0.7,1.6,103.2,0.18,4.1,11.7,"15:16:48",1
"20/01/26","15:30",0.0,12.9,54.4,1017.3,10.6,0.8,2.2,344.4,0.14,4.0,11.8,"15:29:20",1
"20/01/26","15:40",0.0,12.7,52.5,1017.3,313.9,2.2,4.9,340.5,0.14,3.3,11.7,"15:38:24",1
"20/01/26","15:50",0.0,13.1,52.4,1017.5,331.4,1.6,3.4,331.0,0.12,3.6,11.8,"15:48:00",1
"20/01/26","16:00",0.0,13.0,46.8,1017.3,337.3,2.2,4.1,342.3,0.12,1.9,11.6,"15:56:00",1
"20/01/26","16:10",0.0,13.2,43.3,1017.8,337.4,2.5,4.7,335.1,0.14,1.0,11.7,"16:03:52",1
"20/01/26","16:20",0.0,13.4,39.7,1018.0,350.0,2.1,3.7,334.3,0.16,0.0,11.6,"16:17:28",1
"20/01/26","16:30",0.0,13.1,39.0,1017.8,341.4,2.8,5.2,325.4,0.11,-0.5,11.5,"16:23:44",1
"20/01/26","16:40",0.0,12.7,40.5,1017.8,334.0,2.3,3.5,338.6,0.07,-0.3,11.6,"16:30:32",1
"20/01/26","16:50",0.0,12.2,41.6,1018.0,338.0,3.2,5.1,335.2,0.04,-0.4,11.4,"16:44:24",1
"20/01/26","17:00",0.0,11.9,41.6,1018.2,340.5,2.6,4.5,3.2,0.02,-0.7,11.3,"16:52:56",1
"20/01/26","17:10",0.0,11.8,42.6,1018.2,329.5,2.6,6.7,310.8,0.02,-0.5,11.2,"17:09:16",1
"20/01/26","17:20",0.0,11.6,43.9,1018.5,326.3,2.3,3.7,318.8,0.01,-0.2,11.1,"17:14:16",1
"20/01/26","17:30",0.0,11.4,44.2,1019.0,307.5,1.6,2.2,327.6,0.00,-0.3,11.2,"17:22:14",1
"20/01/26","17:40",0.0,11.1,45.4,1019.2,283.5,1.1,1.9,307.2,0.00,-0.2,11.0,"17:30:40",1
"20/01/26","17:50",0.0,10.8,48.7,1019.2,320.2,1.8,3.4,334.4,0.00,0.5,10.8,"17:47:02",1
"20/01/26","18:00",0.0,10.4,49.0,1019.2,316.6,1.8,3.2,322.0,0.00,0.2,10.7,"17:56:30",1
"20/01/26","18:10",0.0,10.3,49.5,1019.2,324.3,2.2,4.0,345.7,0.00,0.2,10.8,"18:07:16",1
"20/01/26","18:20",0.0,10.2,50.0,1019.2,306.4,2.2,4.2,232.5,0.00,0.3,10.7,"18:16:50",1
"20/01/26","18:30",0.0,10.0,51.2,1019.7,294.8,1.7,2.6,309.9,0.00,0.4,10.5,"18:21:12",1
"20/01/26","18:40",0.0,9.7,52.7,1019.9,294.0,1.5,2.4,342.1,0.00,0.6,10.6,"18:30:32",1
"20/01/26","18:50",0.0,9.6,53.8,1019.7,311.0,1.6,2.9,324.8,0.00,0.7,10.4,"18:47:00",1
"20/01/26","19:00",0.0,9.5,54.6,1019.9,289.4,1.3,2.0,320.6,0.00,0.9,10.0,"18:57:52",1
"20/01/26","19:10",0.0,9.5,55.4,1019.7,299.0,1.5,2.0,265.8,0.00,1.1,10.3,"19:01:38",1
"20/01/26","19:20",0.0,9.2,57.9,1019.4,316.6,1.3,1.9,321.5,0.00,1.4,10.1,"19:10:02",1
"20/01/26","19:30",0.0,8.7,60.8,1019.4,306.8,1.7,2.4,323.3,0.00,1.6,10.1,"19:20:08",1
"20/01/26","19:40",0.0,8.4,63.7,1019.9,318.1,1.7,2.5,338.8,0.00,2.0,9.9,"19:35:36",1
"20/01/26","19:50",0.0,7.9,65.7,1019.4,303.0,1.6,2.2,325.9,0.00,1.9,9.8,"19:43:44",1
"20/01/26","20:00",0.0,7.7,66.7,1019.4,313.3,1.5,1.7,318.0,0.00,1.9,9.8,"19:51:20",1
"20/01/26","20:10",0.0,7.5,67.5,1019.4,302.5,1.3,1.9,311.7,0.00,1.9,9.7,"20:02:24",1
"20/01/26","20:20",0.0,7.6,68.6,1019.2,321.8,0.5,1.9,293.0,0.00,2.2,9.7,"20:10:08",1
"20/01/26","20:30",0.0,7.5,69.6,1019.0,302.1,1.5,2.2,348.3,0.00,2.3,9.6,"20:24:16",1
"20/01/26","20:40",0.0,7.5,70.3,1019.0,310.4,1.6,2.8,318.9,0.00,2.5,9.5,"20:38:32",1
"20/01/26","20:50",0.0,7.5,70.5,1019.0,294.7,1.7,2.1,325.1,0.00,2.5,9.6,"20:45:44",1
"20/01/26","21:00",0.0,7.5,70.7,1019.4,306.3,1.3,2.0,332.8,0.00,2.6,9.5,"20:59:20",1
"20/01/26","21:10",0.0,7.4,71.2,1019.2,310.1,1.8,2.7,312.8,0.00,2.6,9.5,"21:06:56",1
"20/01/26","21:20",0.0,7.3,71.3,1019.2,303.4,2.0,3.3,308.5,0.00,2.5,9.4,"21:13:12",1
"20/01/26","21:30",0.0,7.3,71.4,1019.0,295.5,1.6,2.6,325.6,0.00,2.5,9.3,"21:21:52",1
"20/01/26","21:40",0.0,7.3,71.0,1019.0,297.9,1.8,3.1,318.3,0.00,2.4,9.4,"21:37:28",1
"20/01/26","21:50",0.0,7.5,70.0,1019.0,297.9,2.0,2.9,315.0,0.00,2.4,9.1,"21:49:12",1
"20/01/26","22:00",0.0,7.8,68.2,1019.4,309.8,2.5,3.9,332.2,0.00,2.4,9.3,"21:59:12",1
"20/01/26","22:10",0.0,8.8,62.0,1019.4,321.6,4.1,6.4,341.2,0.00,2.0,9.2,"22:07:22",1
"20/01/26","22:20",0.0,9.2,56.4,1019.7,321.0,4.1,7.5,345.6,0.00,1.0,9.2,"22:17:44",1
"20/01/26","22:30",0.0,9.4,53.8,1019.7,331.6,3.9,7.2,326.5,0.00,0.6,8.9,"22:28:50",1
"20/01/26","22:40",0.0,9.6,51.4,1019.4,332.5,4.4,7.4,339.7,0.00,0.1,9.1,"22:31:44",1
"20/01/26","22:50",0.0,9.6,51.0,1019.4,335.6,2.3,5.0,344.0,0.00,0.0,9.1,"22:42:08",1
"20/01/26","23:00",0.0,9.4,50.4,1019.7,339.2,2.2,4.7,340.0,0.00,-0.3,9.2,"22:53:04",1
"20/01/26","23:10",0.0,9.4,50.8,1019.4,321.7,1.7,2.7,330.1,0.00,-0.2,9.1,"23:02:34",1
"20/01/26","23:20",0.0,9.4,50.1,1019.4,324.9,2.1,5.1,337.5,0.00,-0.4,8.9,"23:19:38",1
"20/01/26","23:30",0.0,9.5,49.8,1019.7,324.6,2.5,4.0,349.6,0.00,-0.4,9.1,"23:28:26",1
"20/01/26","23:40",0.0,9.4,50.7,1019.4,334.3,3.1,5.6,330.2,0.00,-0.3,8.8,"23:36:58",1
"20/01/26","23:50",0.0,9.3,51.5,1019.2,327.6,2.6,5.1,350.3,0.00,-0.1,8.9,"23:43:54",1
"20/01/26","24:00",0.0,9.1,51.9,1019.7,326.9,2.0,3.5,325.5,0.00,-0.2,8.9,"23:56:08",1
